Location: Palomar Mountain Lodge
(33.3110°N, 116.8495°W)
Time: 17:20:52
(UTC-08:00)

Cosmos 1244 Rocket - Pass Details

Date: 13 December 2025
Orbit: 952 x 997 km, 83.0° (Epoch: 17 January)

Event Time Altitude Azimuth Distance (km) Brightness Sun altitude
Rises 18:16:27 0° 353° (N) 3,677 7.4 -19.4°
Reaches altitude 10° 18:18:58 10° 353° (N) 2,720 6.7 -19.9°
Maximum altitude 18:25:12 86° 267° (W) 970 4.4 -21.1°
Drops below altitude 10° 18:31:20 10° 178° (S) 2,676 6.9 -22.4°
Sets 18:33:48 0° 177° (S) 3,615 7.6 -22.9°
